Location: Unspecified
(0.0000°N, 0.0000°E)
Time: 04:53:34
(UTC+00:00)

N. Korean satellite - Pass Details

Date: 06 May 2021
Orbit: 450 x 501 km, 97.2° (Epoch: 16 May)

Event Time Altitude Azimuth Distance (km) Brightness Sun altitude
Rises 04:51:16 0° 15° (NNE) 2,441 10.6 -15.6°
Reaches altitude 10° 04:53:17 10° 18° (NNE) 1,571 9.6 -15.2°
Maximum altitude 04:56:37 66° 101° (E) 492 6.7 -14.4°
Drops below altitude 10° 04:59:59 10° 184° (S) 1,583 9.0 -13.6°
Sets 05:02:02 0° 186° (S) 2,462 9.9 -13.1°
